Find Kosmos-874

NORAD ID: 9591 Int'l Des: 1976-118 Owner: GUKOSR Country: SU operational
LEOCIRCULAR

实时位置

正在加载3D地球...

关于 Kosmos-874

正在加载描述...

即将过境

Passes for default location (London). Set your location on the main map for personalized predictions.

高度历史

Loading altitude history...

两行轨道根数

1 09591U 76118D 26107.03810559 .00000000 00000-0 10776-3 0 9998
2 09591 74.0305 317.3699 0032801 123.8020 30.3949 12.44002787241395
Epoch: Apr 17, 2026 • Age: 16 hours

当前状态

高度 1492.2 km
速度 7.12 km/s
星下点 -21.27°S, 47.94°E
类型 other

Most Searched